Temperature
23 24 25 26 26 26 24 23 22 22 22 22 22 22 23 23 23 23 23 23 23 23 23 23 23 22 22 22 22 21 21 21 21 20 20 20 19 19 19 19 18 18 18 17
23 25 25 25 25 25 25 24 23 23 22 22 23 23 23 23 22 22 22 22 23 23 23 22 22 22 22 22 22 21 21 21 20 20 20 19 19 19 19 18 18 18 18 17
21 23 24 23 24 24 24 23 23 22 22 21 21 21 22 22 22 22 22 22 22 22 22 22 22 22 22 22 21 21 20 20 20 20 19 19 19 19 19 18 18 18 17 17
19 21 22 22 23 24 23 23 22 22 22 22 22 22 22 23 22 22 22 22 22 22 21 22 22 21 21 21 21 20 20 20 19 19 19 19 19 19 18 18 18 18 17 17
18 20 21 22 23 24 23 22 22 22 22 22 23 22 21 22 22 22 22 22 21 21 21 21 21 21 21 20 20 20 19 19 19 19 19 19 18 18 18 18 18 17 17 17
18 20 20 21 23 24 22 21 22 21 21 21 21 19 20 22 22 22 22 22 21 21 21 21 20 20 20 20 19 19 19 19 19 18 18 18 18 18 18 17 17 17 17 17
18 19 19 21 22 23 21 20 21 21 21 21 20 20 22 22 22 22 22 21 21 21 21 20 20 20 19 19 19 19 18 18 18 18 18 18 18 17 17 17 17 17 16 16
17 18 19 20 21 20 19 21 21 21 22 22 21 21 22 22 22 21 21 21 20 20 20 20 20 19 19 19 18 18 18 18 18 17 17 17 17 17 17 16 16 16 16 16
16 17 18 20 20 21 21 21 21 21 21 21 21 20 21 21 21 20 20 20 20 20 19 19 19 19 18 18 18 17 17 17 17 17 17 17 17 16 16 16 16 15 15 15
16 17 18 20 21 21 21 21 21 21 21 21 20 20 20 20 20 20 19 19 19 19 19 18 18 18 18 17 17 17 17 17 17 16 16 16 16 16 16 15 15 15 15 15
15 16 18 19 20 20 20 21 20 20 20 20 20 19 19 19 19 19 19 18 18 18 18 18 17 17 17 17 17 16 16 16 16 16 16 16 15 15 15 15 15 15 15 14
15 17 16 18 19 19 19 20 20 20 19 19 19 18 18 18 18 18 18 18 18 17 17 17 17 16 16 16 16 16 15 15 15 15 15 15 15 15 15 14 14 14 14 14
18 18 18 18 19 19 19 19 19 19 19 18 18 18 18 18 17 17 17 17 17 17 17 16 16 16 16 16 16 15 15 15 15 15 15 14 14 14 14 14 14 14 14 14
18 18 18 18 18 18 18 18 18 18 18 18 17 17 17 17 17 16 16 16 16 16 16 16 15 15 15 15 15 15 15 14 14 14 14 14 14 13 13 13 13 13 13 13
18 18 18 18 18 18 18 17 17 17 17 17 17 16 16 16 16 16 15 15 15 15 15 15 15 15 15 14 14 14 14 14 14 14 14 13 13 13 13 13 13 13 13 13
17 17 17 17 17 17 17 17 16 16 16 16 16 16 15 15 15 15 15 15 15 15 14 14 14 14 14 14 14 14 13 13 13 13 13 13 13 13 13 12 12 12 12 12
16 16 17 17 16 16 16 16 16 16 15 15 15 15 15 15 14 14 14 14 14 14 14 14 14 14 14 13 13 13 13 13 13 13 13 13 13 13 12 12 12 12 12 12
16 16 16 16 16 16 15 15 15 15 15 15 14 14 14 14 14 14 14 13 13 13 13 13 13 13 13 13 13 13 13 13 13 13 13 13 12 12 12 12 11 11 11 11
16 16 16 16 16 15 15 15 15 15 15 14 14 14 14 13 13 13 13 13 13 13 13 13 13 13 13 13 13 13 13 12 12 12 12 12 12 12 11 11 11 11 11 11
15 15 15 15 15 15 15 14 14 14 14 14 14 13 13 13 13 13 13 13 12 12 12 12 12 12 12 12 12 12 12 12 12 12 12 11 11 11 11 11 10 10 10 10
14 14 15 15 15 14 14 14 14 14 14 13 13 13 13 13 13 13 12 12 12 12 12 12 12 12 12 12 12 12 12 12 11 11 11 11 10 10 10 10 10 10 9 9
14 14 14 14 14 14 14 14 14 14 13 13 13 13 13 12 12 12 12 12 12 12 12 12 12 12 11 12 11 11 11 11 11 10 10 10 10 10 9 9 9 9 9 8
13 13 13 13 13 13 13 13 13 13 13 13 13 13 12 12 12 12 12 11 11 11 11 11 11 11 11 11 11 10 10 10 10 10 9 9 9 9 9 9 8 8 8 8
13 13 13 13 13 13 13 13 13 13 13 12 12 12 12 12 12 12 11 11 11 11 11 11 11 11 11 10 10 10 10 10 9 9 9 9 8 8 8 8 8 8 8 8
12 12 12 12 12 12 12 12 12 12 12 12 12 12 12 11 11 11 11 11 11 11 11 10 10 10 10 10 10 9 9 9 9 9 9 8 8 8 8 8 8 8 8 7
12 12 12 12 12 12 12 12 12 12 12 11 11 11 11 11 11 11 11 11 11 10 10 10 10 10 9 9 9 9 9 9 9 8 8 8 8 8 8 8 8 7 7 7
12 12 12 11 12 12 12 12 12 11 11 11 11 11 11 11 11 11 11 10 10 10 10 10 9 9 9 9 9 9 8 8 8 8 8 8 8 8 7 7 7 7 7 7
Wind_Speed
4 3 0 2 4 3 1 4 5 5 5 7 5 4 3 3 4 5 5 6 7 6 5 5 5 4 4 5 5 6 6 6 6 5 4 4 4 4 4 4 5 4 3 3
3 2 3 4 5 4 2 0 2 2 1 4 2 3 3 3 5 5 4 4 5 6 6 6 6 5 4 4 5 5 6 6 5 5 4 4 5 5 4 4 4 4 4 4
3 4 4 3 4 1 1 1 3 4 4 1 2 4 4 4 5 5 4 3 4 5 5 6 6 5 5 5 4 4 4 4 4 4 4 4 4 4 5 5 4 4 4 4
1 3 3 7 4 3 4 2 1 3 4 5 4 3 4 4 5 4 3 3 3 3 2 3 3 4 4 4 4 3 2 2 3 3 3 3 3 4 4 4 4 4 4 4
3 2 4 5 3 2 3 2 1 3 3 3 4 5 3 1 3 4 3 3 3 3 3 3 3 3 4 3 2 2 2 2 3 3 3 3 4 4 4 4 4 3 3 4
4 3 4 6 5 0 5 1 4 1 3 3 5 3 3 2 2 3 3 3 3 2 4 3 2 3 3 2 2 2 3 3 2 2 3 4 5 4 4 4 4 3 3 4
4 4 5 5 5 4 3 4 4 0 2 3 4 5 5 2 2 2 3 3 4 4 3 2 2 3 3 1 2 3 2 1 2 2 3 3 3 3 3 3 3 3 3 3
4 3 6 5 3 2 4 2 1 2 2 2 2 3 3 3 3 3 3 3 4 4 2 1 2 4 3 1 2 0 0 0 1 2 2 2 1 2 2 2 2 2 2 3
5 5 5 1 2 3 3 2 1 1 2 2 2 1 2 2 3 3 3 3 3 3 2 1 1 3 3 2 0 1 1 1 1 1 1 1 1 1 1 1 2 2 2 3
1 2 2 2 1 0 1 1 1 2 2 2 2 2 2 2 2 1 1 2 3 3 2 1 1 1 2 1 1 1 0 1 1 1 1 1 1 1 1 2 2 2 2 3
1 3 3 4 3 3 2 1 2 2 2 2 3 2 2 2 1 0 0 0 2 2 1 0 0 0 1 1 1 1 0 2 1 1 1 1 1 2 2 3 4 4 4 4
5 6 4 5 5 3 2 1 1 2 2 1 3 2 2 1 1 1 1 1 1 1 1 0 0 0 1 0 1 1 1 2 2 1 1 1 1 3 4 2 4 5 5 5
6 5 4 4 4 3 1 1 1 1 2 1 1 2 2 1 0 0 1 2 2 1 1 0 0 1 1 1 1 1 2 2 2 1 1 1 1 1 3 4 3 3 3 4
2 1 2 3 3 2 1 2 3 3 3 3 2 2 2 1 1 1 1 1 2 2 1 1 0 2 3 1 1 1 2 2 2 2 2 2 2 2 2 2 2 3 3 3
4 3 5 4 2 1 1 3 3 3 3 3 2 2 2 2 2 1 1 2 2 2 1 1 1 3 3 2 1 2 1 2 2 1 2 2 2 2 2 2 2 1 1 3
5 4 2 2 2 1 1 2 2 1 1 1 1 1 1 2 2 1 1 1 2 0 1 1 2 4 3 2 1 2 2 2 1 1 1 1 1 1 1 1 1 0 1 1
3 4 3 2 2 2 2 2 2 2 2 2 1 1 2 2 2 2 1 1 1 1 1 2 3 3 2 1 1 1 1 1 0 0 1 1 1 1 1 1 0 0 1 1
5 5 5 4 3 2 2 2 3 3 3 2 2 1 2 2 1 1 1 0 1 2 2 2 2 2 2 2 1 1 0 0 0 0 1 0 1 1 1 1 1 1 1 1
3 3 3 3 3 3 2 2 2 3 3 3 3 2 2 2 2 2 1 1 0 2 3 3 2 2 2 2 2 0 1 1 1 1 1 1 2 2 2 1 1 1 1 1
2 1 1 1 2 3 3 3 2 2 2 3 2 2 1 2 2 1 1 1 2 2 2 1 1 1 2 2 1 1 1 2 2 1 2 2 2 2 2 2 2 2 2 2
2 1 1 1 1 1 2 3 3 3 2 2 3 3 3 3 2 2 2 1 2 1 0 0 1 1 1 1 2 2 2 2 2 2 2 2 3 3 3 2 2 2 2 2
2 1 1 0 0 1 2 1 2 2 2 1 2 2 2 2 1 1 1 2 2 1 1 0 1 1 2 3 2 3 2 3 3 3 3 3 3 3 2 3 2 2 2 2
2 2 1 0 0 0 1 1 1 2 2 2 3 3 3 2 2 3 1 1 1 2 1 1 1 3 5 4 3 3 3 3 3 3 3 3 3 2 2 3 2 2 2 2
2 2 2 1 1 2 1 1 1 0 1 1 2 3 3 2 1 1 2 3 3 2 2 2 4 6 6 4 4 3 3 3 3 3 3 3 3 3 3 3 3 2 2 3
3 2 1 1 1 1 1 0 1 1 2 1 1 1 1 2 3 2 2 2 3 3 2 3 5 6 4 3 3 3 3 3 3 3 3 3 3 3 3 2 2 2 3 3
2 2 1 2 1 1 1 1 1 1 1 2 1 1 2 2 3 2 2 2 3 3 2 2 3 3 3 3 3 3 3 3 3 3 3 3 2 2 2 3 3 2 2 2
2 2 1 1 1 0 0 1 1 1 2 3 2 1 1 2 3 3 3 3 2 2 2 2 2 2 3 2 3 2 2 3 3 3 2 2 2 1 1 2 2 2 2 2
Wind_Direction
215 230 159 318 311 327 339 196 189 216 209 230 210 185 185 161 133 113 112 130 136 139 141 140 139 147 160 163 169 172 174 183 195 196 189 182 182 189 192 196 208 214 223 236
334 334 10 343 321 320 333 212 163 139 260 251 209 119 111 130 136 128 126 141 141 142 147 158 160 166 170 178 180 171 177 191 193 186 186 187 195 194 197 211 219 217 230 241
283 309 21 310 264 246 10 23 156 179 214 189 86 113 146 152 142 136 144 147 149 162 174 177 178 178 177 181 171 166 179 182 179 185 196 207 206 199 207 215 217 223 227 223
191 36 229 244 254 143 113 32 127 154 167 155 159 156 141 143 138 122 132 151 176 170 177 180 173 167 163 150 151 160 167 176 183 187 198 206 207 216 216 215 218 224 226 227
140 185 265 292 291 154 136 324 302 150 138 137 138 79 26 71 137 149 155 159 181 174 170 155 160 158 139 143 156 171 189 199 204 202 204 207 219 230 225 216 223 227 222 219
141 162 224 254 289 32 102 317 305 140 138 128 101 110 258 264 151 140 143 148 147 135 114 124 148 138 135 162 175 204 218 216 211 200 209 219 227 231 226 219 221 224 233 226
170 196 245 269 311 33 112 235 292 345 142 138 153 193 214 201 131 126 124 122 119 123 125 135 144 126 126 145 218 229 225 214 213 218 230 232 237 244 231 231 231 232 235 244
159 180 244 295 34 111 202 237 355 24 72 104 139 159 155 131 120 107 104 107 109 111 109 112 118 125 134 196 241 208 115 231 238 247 248 249 249 264 238 217 234 243 247 268
178 202 238 286 130 193 171 128 51 60 66 111 122 148 122 118 118 115 118 123 118 115 96 46 97 136 148 219 185 98 60 295 263 276 288 267 223 255 261 212 219 243 241 255
67 260 276 321 359 330 127 112 76 80 78 102 117 109 100 109 108 106 117 130 127 116 108 31 359 118 174 194 155 101 38 297 254 236 310 318 320 252 227 231 235 248 244 252
299 272 328 328 329 332 352 25 53 60 81 106 123 125 130 136 142 151 119 94 121 128 136 218 328 149 180 176 128 107 314 291 278 244 245 288 317 293 245 231 215 213 228 225
231 237 214 255 282 305 338 331 36 70 46 67 122 136 113 127 145 153 142 110 110 108 112 168 115 207 248 225 153 169 258 289 273 255 257 239 295 332 325 281 248 230 221 218
226 237 219 247 286 300 305 330 29 103 121 88 64 104 105 121 84 81 124 117 122 121 113 82 55 298 281 253 191 218 251 268 273 251 226 228 229 260 313 324 325 285 255 252
259 286 295 279 277 302 58 74 71 68 67 71 76 82 95 100 76 72 137 147 130 114 93 74 1 292 287 283 279 266 261 264 263 249 229 223 223 232 252 268 301 321 323 319
275 248 233 247 274 350 60 75 72 72 67 50 55 69 108 121 127 111 151 130 109 93 50 350 305 290 291 294 293 277 269 273 267 260 232 220 228 239 271 264 249 281 345 346
271 284 268 220 220 211 148 124 130 141 123 119 89 107 113 114 112 70 53 111 114 117 288 289 284 283 289 286 269 268 261 255 250 242 229 228 232 250 269 250 232 248 334 312
260 275 276 241 222 224 207 181 170 180 147 131 154 127 109 92 71 31 11 46 142 234 267 270 282 298 314 313 286 261 264 281 311 233 222 216 213 239 215 168 157 192 276 275
233 237 234 213 197 197 213 206 186 182 181 182 159 138 137 142 172 245 293 329 359 342 324 306 316 328 330 332 306 262 343 44 28 288 253 172 150 143 133 130 133 112 349 357
255 254 243 226 194 183 200 208 208 201 184 171 178 193 193 191 202 222 258 221 232 311 306 309 324 331 318 316 334 44 70 54 31 25 63 100 101 96 98 92 77 48 27 19
263 241 181 182 178 179 197 215 209 210 199 176 175 182 206 219 212 221 255 252 252 247 260 282 350 348 324 327 12 68 75 66 57 45 58 80 95 95 85 74 63 54 39 27
350 18 128 174 214 219 216 209 193 191 200 195 182 196 214 222 213 194 180 246 276 253 247 349 34 21 357 17 47 72 76 73 67 70 80 83 85 82 74 62 46 38 29 27
5 8 24 53 114 296 284 236 177 177 182 196 191 194 202 224 233 199 199 209 221 200 137 104 47 49 45 53 60 67 70 78 77 69 77 85 87 83 79 70 55 43 33 36
312 303 307 281 149 126 33 53 125 173 202 216 204 194 191 202 185 166 185 227 172 148 122 126 90 69 63 62 65 71 73 73 75 72 74 80 82 83 78 67 55 50 41 36
308 291 275 218 138 103 63 351 359 303 223 195 197 181 162 154 144 167 155 156 146 116 93 94 81 70 68 68 70 71 73 72 71 70 69 69 71 72 75 71 57 48 46 42
313 302 264 166 158 186 202 172 36 38 87 106 106 119 147 154 156 157 137 143 127 94 81 82 76 73 71 70 74 74 70 70 72 73 68 69 71 73 71 70 60 50 42 34
337 319 257 215 196 197 198 177 159 165 120 104 86 92 114 123 125 124 115 124 121 111 98 89 86 78 73 72 75 70 60 59 62 62 60 63 74 76 73 70 61 52 35 27
358 22 43 6 336 319 174 181 173 170 153 142 138 131 131 128 123 119 113 113 113 100 90 84 88 91 87 83 80 74 70 72 69 68 68 69 70 73 75 70 63 54 41 29
Height
1498 1494 1493 1494 1493 1493 1499 1504 1512 1508 1506 1499 1493 1492 1491 1492 1492 1492 1492 1493 1493 1495 1497 1499 1500 1502 1503 1504 1505 1506 1506 1507 1508 1508 1509 1509 1508 1509 1509 1509 1508 1508 1508 1507
1499 1492 1492 1495 1493 1492 1494 1495 1498 1500 1502 1492 1490 1490 1490 1491 1492 1492 1493 1493 1493 1494 1496 1498 1499 1500 1501 1502 1502 1503 1504 1504 1505 1505 1506 1506 1506 1506 1506 1506 1505 1505 1505 1504
1511 1499 1497 1507 1495 1492 1494 1492 1495 1501 1498 1492 1491 1491 1491 1491 1492 1492 1493 1493 1493 1494 1494 1495 1497 1498 1499 1499 1500 1501 1501 1502 1502 1502 1503 1503 1503 1503 1502 1502 1502 1501 1501 1500
1513 1509 1518 1504 1487 1486 1490 1491 1489 1490 1490 1489 1490 1491 1491 1491 1491 1492 1492 1493 1493 1493 1493 1494 1495 1495 1496 1497 1498 1498 1498 1499 1499 1499 1499 1499 1499 1499 1499 1498 1498 1498 1497 1496
1517 1519 1512 1497 1486 1485 1490 1495 1489 1488 1488 1488 1488 1490 1492 1492 1491 1491 1492 1493 1493 1492 1493 1493 1493 1494 1494 1495 1495 1495 1495 1495 1496 1496 1496 1495 1495 1495 1495 1494 1494 1494 1493 1493
1512 1515 1518 1501 1485 1482 1487 1499 1489 1487 1487 1487 1488 1495 1494 1491 1490 1491 1491 1491 1491 1491 1491 1491 1492 1492 1492 1492 1493 1492 1492 1492 1492 1492 1492 1492 1491 1491 1491 1490 1490 1489 1489 1489
1510 1512 1506 1491 1484 1483 1502 1502 1489 1487 1486 1486 1487 1489 1490 1489 1489 1489 1489 1489 1490 1490 1490 1490 1490 1490 1490 1491 1490 1490 1490 1490 1490 1489 1489 1488 1488 1487 1487 1486 1486 1485 1485 1485
1509 1513 1509 1488 1486 1491 1494 1489 1488 1486 1485 1486 1486 1487 1487 1487 1486 1486 1487 1488 1488 1488 1488 1488 1488 1488 1488 1488 1488 1488 1487 1487 1486 1486 1486 1485 1484 1483 1483 1483 1482 1481 1481 1481
1499 1501 1491 1487 1487 1488 1487 1487 1487 1485 1485 1486 1486 1486 1485 1485 1485 1485 1486 1486 1486 1486 1486 1486 1486 1486 1485 1485 1485 1484 1484 1483 1483 1482 1482 1481 1480 1480 1479 1479 1478 1477 1477 1476
1494 1491 1488 1487 1486 1486 1486 1486 1486 1485 1484 1484 1484 1485 1484 1484 1484 1485 1485 1484 1484 1484 1484 1484 1484 1483 1483 1483 1482 1481 1480 1480 1479 1478 1478 1477 1477 1476 1475 1475 1474 1473 1473 1472
1494 1490 1488 1486 1485 1485 1485 1484 1484 1483 1483 1483 1482 1482 1482 1483 1483 1483 1483 1482 1482 1482 1481 1481 1481 1481 1480 1480 1479 1478 1477 1477 1476 1475 1474 1474 1473 1473 1472 1471 1471 1470 1470 1469
1492 1487 1488 1486 1484 1484 1482 1482 1482 1481 1481 1481 1481 1480 1480 1480 1480 1480 1480 1480 1480 1480 1480 1479 1479 1478 1477 1477 1476 1474 1474 1473 1473 1472 1471 1470 1470 1469 1469 1469 1467 1467 1466 1465
1484 1484 1484 1483 1482 1481 1480 1479 1479 1479 1479 1479 1479 1479 1478 1478 1478 1478 1478 1478 1478 1478 1477 1477 1476 1475 1475 1474 1473 1472 1471 1470 1469 1469 1468 1468 1467 1466 1465 1464 1464 1463 1462 1462
1481 1481 1481 1480 1479 1478 1478 1477 1477 1477 1477 1478 1477 1477 1477 1476 1476 1476 1476 1476 1475 1475 1475 1474 1473 1473 1472 1471 1470 1468 1468 1467 1466 1465 1465 1465 1464 1463 1462 1461 1460 1459 1459 1458
1478 1478 1478 1477 1477 1476 1476 1475 1475 1475 1475 1476 1476 1476 1475 1474 1474 1474 1474 1474 1473 1472 1472 1471 1471 1470 1469 1468 1467 1466 1465 1464 1464 1462 1462 1461 1461 1460 1459 1458 1457 1456 1455 1455
1476 1475 1474 1473 1473 1473 1473 1473 1472 1473 1473 1473 1474 1473 1473 1473 1472 1472 1471 1471 1470 1469 1468 1468 1467 1466 1466 1465 1464 1463 1462 1462 1461 1459 1459 1458 1457 1456 1455 1454 1453 1453 1453 1452
1472 1471 1470 1470 1470 1470 1471 1471 1471 1471 1470 1471 1471 1471 1471 1470 1470 1469 1468 1468 1467 1466 1466 1465 1464 1463 1463 1462 1461 1460 1459 1458 1457 1457 1456 1455 1454 1453 1452 1452 1451 1451 1450 1450
1468 1468 1468 1467 1467 1467 1468 1468 1468 1468 1468 1468 1469 1469 1468 1468 1467 1467 1466 1466 1465 1464 1463 1462 1461 1461 1460 1459 1459 1458 1457 1456 1455 1453 1452 1452 1451 1451 1450 1449 1449 1449 1448 1448
1465 1465 1464 1465 1465 1465 1465 1464 1465 1465 1466 1466 1466 1466 1466 1465 1465 1464 1464 1463 1462 1461 1460 1460 1459 1458 1457 1457 1456 1456 1454 1453 1452 1450 1450 1449 1449 1448 1448 1448 1447 1446 1446 1445
1461 1461 1461 1462 1462 1462 1462 1462 1463 1463 1463 1463 1463 1463 1463 1462 1462 1462 1461 1460 1459 1459 1458 1457 1456 1455 1455 1454 1454 1453 1452 1451 1450 1448 1447 1447 1447 1446 1446 1446 1445 1445 1444 1444
1459 1459 1458 1459 1459 1460 1460 1460 1460 1460 1460 1460 1459 1459 1459 1459 1459 1459 1458 1458 1458 1457 1457 1455 1454 1453 1453 1452 1452 1450 1450 1449 1448 1446 1445 1445 1445 1444 1444 1444 1444 1443 1443 1442
1458 1457 1457 1456 1456 1457 1457 1457 1457 1457 1457 1457 1456 1456 1455 1455 1455 1456 1455 1455 1455 1455 1454 1453 1452 1452 1452 1451 1450 1449 1448 1447 1447 1445 1444 1444 1444 1443 1443 1443 1443 1442 1442 1441
1456 1456 1455 1455 1455 1454 1454 1454 1454 1454 1454 1454 1453 1453 1452 1452 1452 1453 1453 1453 1453 1453 1452 1452 1451 1451 1451 1449 1449 1448 1447 1447 1446 1445 1444 1443 1443 1443 1442 1442 1442 1441 1441 1440
1454 1453 1453 1453 1453 1453 1452 1452 1452 1452 1451 1451 1451 1451 1450 1450 1451 1451 1452 1452 1453 1452 1451 1451 1451 1451 1450 1448 1448 1447 1447 1446 1446 1445 1444 1444 1443 1443 1442 1442 1441 1441 1440 1439
1452 1450 1450 1450 1451 1451 1451 1451 1451 1450 1449 1449 1449 1449 1449 1450 1450 1451 1451 1451 1451 1451 1451 1451 1451 1451 1450 1449 1448 1448 1447 1447 1447 1446 1445 1445 1444 1443 1443 1442 1441 1441 1439 1438
1449 1447 1447 1448 1449 1450 1450 1450 1449 1449 1448 1448 1448 1449 1449 1450 1450 1450 1451 1451 1451 1452 1452 1451 1451 1451 1450 1450 1449 1448 1448 1447 1447 1447 1446 1445 1445 1444 1443 1442 1441 1440 1439 1438
1449 1448 1448 1449 1449 1449 1449 1449 1448 1448 1448 1448 1448 1449 1449 1449 1450 1450 1451 1451 1452 1452 1452 1452 1452 1451 1451 1450 1449 1449 1448 1448 1448 1447 1447 1446 1445 1444 1443 1443 1442 1441 1439 1438